Simultaneous Nadir Overpasses (SNOs) Predictions

Prediction of SNOs between AQUA and METOP-A Satellite Orbit:

Table of predicted SNOs for the next 14.0 days since TLE Epoch: 5/17/2014
Index Date (AQUA) Time (AQUA) Lat,Lon (AQUA) SZA (AQUA ) Date (METOP-A) Time (METOP-A) Lat,Lon (METOP-A) SZA (METOP-A ) Distance(km) Time Diff (sec)
1 05/19/2014 16:08:39 -73.81, 112.26 126.07 05/19/2014 16:07:26 -73.73, 111.96 126.13 12.42 73
2 05/19/2014 16:58:08 73.87, -80.25 54.00 05/19/2014 16:58:03 73.89, -80.32 54.02 3.10 5
3 05/19/2014 17:47:35 -73.96, 87.19 125.92 05/19/2014 17:48:43 -73.96, 87.17 125.93 0.80 68
4 05/22/2014 11:42:50 -73.81, 178.69 126.64 05/22/2014 11:41:46 -73.82, 178.58 126.62 3.36 64
5 05/22/2014 12:32:19 73.88, -13.83 53.44 05/22/2014 12:32:25 73.88, -13.94 53.43 3.40 6
6 05/22/2014 13:21:49 -74.12, 153.27 126.32 05/22/2014 13:23:01 -74.14, 154.04 126.33 23.42 72
7 05/25/2014 07:17:02 -73.86,-114.97 127.11 05/25/2014 07:16:08 -73.85,-114.93 127.12 2.08 54
8 05/25/2014 08:06:30 73.89, 52.62 52.91 05/25/2014 08:06:47 73.91, 52.54 52.93 3.17 17
9 05/25/2014 08:56:09 -74.58,-141.37 126.35 05/25/2014 08:57:15 -74.56,-138.46 126.46 85.97 66
10 05/28/2014 02:51:12 -73.85, -48.48 127.60 05/28/2014 02:50:30 -73.87, -48.46 127.58 2.06 42
11 05/28/2014 03:40:41 73.93, 118.97 52.48 05/28/2014 03:41:09 73.93, 119.01 52.47 1.30 28
12 05/30/2014 22:25:21 -73.88, 17.91 128.00 05/30/2014 22:24:51 -73.88, 17.99 127.99 2.56 30
13 05/30/2014 23:14:49 73.92,-174.53 52.04 05/30/2014 23:15:30 73.94,-174.55 52.06 2.35 41




NCC Satellite Simultaneous Nadir Overpasses (SNOs) Prediction Service
